Temp
1 1 1 -1 -1 -2 -0 -0 0 -0 -0 -1 -1 -0 1 0 -1 1 1 1 1 1 1 1 1 1 1 1 1 1 1 1 0 0 1 1 1 0 0 1 0 1 0 0
-0 -0 -1 -1 -1 -1 -1 -1 -1 -1 -2 -2 -1 -0 1 1 0 -2 -0 -0 1 0 0 0 0 0 0 0 0 0 0 0 0 0 1 0 -0 -0 -0 1 0 -0 0 0
-1 -1 -1 -1 -1 -1 -1 -2 -2 -3 -2 -2 -2 -2 0 -0 0 0 0 -0 -0 -0 -1 -1 -1 -1 -0 -0 -0 -0 0 -0 0 0 0 -0 -0 -1 -0 -0 -0 -0 -0 -0
-1 -1 -1 -1 -1 -2 -2 -3 -3 -3 -4 -4 -3 -5 -3 -1 -1 -1 -1 -1 -0 -1 -2 -2 -2 -2 -2 -1 -1 -1 -1 -1 -1 -1 -0 -0 -0 -0 -1 -1 -1 -1 -1 -1
-1 -1 -1 -2 -2 -3 -4 -3 -3 -4 -4 -5 -4 -4 -2 -1 -2 -2 -3 -2 -1 -2 -2 -3 -4 -3 -3 -3 -2 -2 -2 -1 -1 -1 -1 -0 -0 -1 -1 -1 -2 -2 -1 -1
-2 -2 -2 -2 -2 -3 -4 -4 -4 -4 -5 -7 -4 -4 -3 -2 -3 -3 -4 -3 -2 -3 -4 -4 -5 -4 -4 -4 -4 -3 -3 -3 -2 -2 -2 -2 -1 -1 -2 -2 -3 -2 -1 -1
-2 -2 -2 -3 -3 -4 -5 -5 -5 -7 -8 -9 -4 -4 -3 -3 -3 -3 -3 -3 -3 -3 -4 -5 -5 -5 -5 -5 -5 -4 -5 -5 -4 -4 -4 -3 -4 -3 -3 -4 -3 -3 -2 -3
-3 -4 -4 -3 -4 -5 -6 -5 -5 -9 -9 -6 -4 -5 -3 -3 -3 -3 -3 -4 -4 -4 -5 -6 -6 -5 -5 -6 -6 -6 -6 -6 -6 -6 -5 -5 -5 -4 -3 -3 -3 -4 -3 -2
-4 -4 -4 -4 -4 -4 -6 -6 -6 -6 -6 -7 -5 -5 -4 -4 -4 -4 -4 -4 -4 -5 -6 -7 -6 -6 -6 -6 -6 -6 -6 -6 -6 -6 -6 -6 -6 -6 -5 -5 -4 -4 -4 -4
-4 -5 -5 -5 -5 -5 -5 -6 -7 -7 -12 -11 -5 -5 -5 -5 -5 -5 -5 -5 -5 -6 -7 -7 -7 -7 -7 -7 -7 -7 -7 -7 -7 -6 -6 -6 -6 -6 -6 -6 -5 -4 -4 -4
-5 -5 -6 -6 -6 -6 -7 -7 -7 -7 -7 -11 -9 -6 -5 -6 -6 -6 -6 -6 -6 -7 -8 -8 -8 -8 -8 -7 -7 -7 -7 -7 -7 -7 -7 -7 -6 -6 -6 -6 -6 -5 -5 -4
-5 -6 -7 -6 -6 -7 -7 -7 -8 -8 -8 -7 -7 -7 -7 -7 -7 -7 -7 -7 -7 -8 -7 -8 -8 -8 -8 -8 -8 -8 -8 -8 -8 -7 -7 -7 -7 -6 -7 -6 -6 -5 -5 -5
-6 -8 -8 -7 -7 -7 -7 -8 -8 -8 -9 -9 -10 -9 -8 -8 -8 -8 -8 -10 -9 -10 -9 -10 -9 -9 -9 -9 -9 -8 -8 -8 -8 -8 -8 -7 -7 -7 -6 -6 -6 -6 -5 -5
-7 -8 -8 -8 -7 -7 -8 -9 -9 -10 -10 -10 -10 -10 -9 -9 -10 -9 -9 -10 -10 -10 -10 -10 -10 -10 -9 -10 -10 -10 -10 -10 -9 -9 -8 -8 -8 -7 -7 -7 -6 -6 -6 -5
-8 -8 -8 -8 -8 -9 -9 -10 -9 -10 -10 -12 -11 -11 -10 -10 -11 -12 -12 -11 -11 -11 -12 -12 -11 -11 -11 -10 -11 -11 -11 -11 -10 -10 -10 -10 -9 -9 -8 -8 -7 -7 -6 -6
-8 -9 -9 -9 -9 -10 -11 -11 -10 -11 -11 -12 -11 -12 -10 -12 -12 -12 -13 -13 -12 -13 -13 -13 -13 -13 -13 -12 -12 -12 -12 -12 -12 -11 -11 -11 -11 -10 -10 -9 -9 -8 -8 -7
-9 -9 -10 -11 -11 -11 -12 -10 -11 -11 -12 -12 -12 -12 -12 -12 -13 -13 -13 -13 -13 -13 -13 -13 -13 -13 -14 -14 -13 -13 -13 -13 -12 -13 -13 -12 -12 -12 -12 -11 -10 -10 -9 -9
-9 -10 -12 -13 -13 -17 -10 -10 -11 -11 -11 -12 -13 -13 -14 -14 -14 -14 -13 -14 -14 -14 -14 -15 -15 -15 -15 -15 -15 -14 -14 -14 -13 -14 -14 -14 -13 -13 -13 -13 -13 -12 -11 -10
-10 -10 -13 -13 -14 -12 -11 -11 -12 -13 -13 -13 -14 -14 -14 -14 -14 -14 -15 -15 -15 -14 -15 -15 -15 -15 -16 -16 -15 -15 -15 -15 -14 -14 -14 -14 -14 -14 -14 -14 -13 -13 -13 -12
-10 -11 -13 -14 -15 -18 -11 -12 -13 -14 -15 -14 -14 -15 -15 -15 -15 -16 -16 -16 -16 -16 -15 -15 -15 -15 -15 -16 -16 -16 -16 -15 -15 -15 -15 -14 -14 -14 -14 -14 -14 -14 -14 -13
-11 -12 -13 -14 -15 -14 -14 -14 -14 -15 -15 -15 -15 -16 -16 -17 -17 -17 -17 -17 -17 -16 -16 -16 -16 -16 -16 -16 -17 -17 -17 -16 -15 -15 -15 -15 -15 -14 -15 -15 -15 -15 -14 -14
-11 -12 -13 -15 -16 -16 -13 -14 -15 -15 -16 -16 -16 -17 -17 -17 -17 -17 -17 -17 -18 -18 -18 -17 -17 -17 -17 -17 -17 -17 -17 -17 -17 -16 -16 -15 -15 -15 -15 -15 -15 -15 -15 -14
-12 -12 -12 -13 -13 -13 -14 -14 -15 -16 -17 -17 -18 -18 -18 -18 -18 -19 -19 -19 -19 -19 -19 -18 -18 -18 -18 -18 -18 -18 -18 -18 -18 -17 -17 -17 -16 -16 -15 -15 -15 -15 -15 -15
-12 -13 -13 -14 -13 -15 -15 -16 -16 -17 -18 -18 -18 -18 -18 -18 -18 -19 -20 -20 -20 -20 -20 -19 -19 -19 -19 -18 -18 -18 -18 -18 -18 -18 -17 -17 -17 -17 -16 -16 -16 -16 -15 -15
-12 -12 -13 -14 -14 -15 -16 -16 -17 -17 -17 -18 -18 -18 -19 -19 -19 -19 -19 -20 -21 -21 -20 -20 -19 -19 -19 -19 -19 -19 -19 -18 -18 -18 -18 -18 -18 -17 -17 -17 -17 -17 -16 -16
-11 -12 -13 -13 -14 -15 -16 -16 -16 -16 -17 -17 -18 -18 -19 -19 -18 -18 -19 -20 -20 -21 -20 -20 -20 -20 -20 -20 -19 -20 -20 -19 -19 -18 -18 -18 -18 -18 -18 -18 -17 -17 -17 -17
Height
3115 3116 3117 3119 3119 3118 3118 3117 3114 3115 3115 3110 3105 3102 3101 3102 3100 3095 3094 3092 3090 3089 3088 3087 3085 3083 3080 3078 3077 3076 3076 3078 3078 3078 3079 3080 3082 3086 3087 3090 3090 3091 3092 3093
3114 3113 3112 3114 3115 3116 3115 3112 3110 3109 3110 3108 3102 3095 3095 3095 3093 3092 3088 3088 3086 3084 3083 3082 3081 3079 3078 3075 3073 3072 3071 3072 3073 3074 3075 3076 3077 3080 3082 3084 3086 3087 3089 3089
3110 3112 3111 3112 3111 3111 3111 3110 3108 3107 3104 3102 3098 3086 3089 3088 3089 3086 3085 3085 3081 3080 3079 3078 3076 3074 3073 3071 3070 3068 3067 3067 3068 3070 3071 3072 3073 3074 3077 3080 3081 3082 3084 3085
3107 3107 3108 3109 3109 3109 3108 3107 3107 3105 3103 3101 3099 3088 3084 3086 3083 3083 3082 3081 3078 3076 3075 3074 3072 3070 3068 3068 3066 3064 3064 3063 3063 3064 3065 3068 3069 3070 3071 3072 3075 3077 3079 3082
3106 3105 3106 3107 3108 3106 3107 3104 3103 3102 3101 3098 3094 3095 3081 3085 3081 3080 3079 3078 3076 3074 3072 3071 3070 3068 3066 3065 3064 3062 3061 3060 3059 3059 3060 3062 3065 3066 3067 3068 3071 3072 3074 3078
3103 3103 3104 3104 3103 3104 3103 3102 3100 3098 3099 3096 3090 3092 3082 3081 3080 3079 3075 3076 3075 3072 3070 3069 3068 3067 3065 3063 3062 3061 3059 3058 3057 3057 3057 3058 3060 3062 3064 3066 3066 3069 3072 3073
3101 3101 3101 3102 3101 3102 3102 3101 3100 3100 3099 3095 3089 3088 3083 3082 3080 3080 3074 3073 3071 3069 3067 3067 3066 3065 3064 3063 3062 3061 3059 3058 3057 3056 3055 3055 3057 3058 3061 3063 3065 3065 3066 3068
3100 3099 3100 3101 3101 3101 3100 3102 3104 3105 3098 3091 3088 3083 3080 3079 3080 3078 3073 3069 3067 3065 3064 3064 3064 3064 3063 3062 3061 3060 3060 3059 3058 3058 3057 3056 3054 3055 3056 3058 3061 3062 3057 3063
3099 3098 3098 3099 3100 3102 3100 3100 3100 3098 3094 3092 3082 3077 3078 3075 3074 3072 3070 3067 3064 3062 3061 3061 3061 3061 3060 3060 3060 3059 3059 3059 3059 3058 3058 3057 3057 3056 3056 3055 3057 3059 3059 3060
3095 3096 3095 3097 3097 3098 3097 3097 3097 3096 3097 3091 3076 3073 3071 3072 3070 3068 3066 3063 3060 3058 3057 3057 3058 3058 3058 3057 3057 3057 3057 3057 3057 3057 3057 3057 3056 3056 3056 3055 3055 3056 3057 3056
3093 3095 3094 3094 3093 3093 3092 3092 3093 3092 3090 3086 3082 3067 3068 3068 3066 3062 3060 3058 3055 3054 3054 3053 3054 3054 3054 3053 3053 3052 3052 3052 3052 3052 3053 3053 3053 3054 3054 3054 3054 3055 3055 3055
3091 3090 3088 3089 3090 3089 3088 3088 3090 3088 3083 3079 3077 3052 3065 3065 3063 3060 3057 3057 3054 3051 3051 3050 3050 3049 3050 3049 3048 3047 3047 3047 3047 3047 3047 3047 3047 3048 3049 3049 3050 3051 3052 3053
3086 3085 3085 3084 3086 3083 3081 3083 3083 3082 3079 3067 3071 3055 3058 3061 3059 3057 3054 3051 3049 3047 3045 3045 3045 3044 3044 3043 3043 3042 3041 3041 3041 3041 3041 3041 3041 3042 3041 3042 3044 3044 3045 3046
3082 3081 3082 3083 3081 3081 3077 3077 3077 3075 3068 3060 3058 3050 3048 3053 3054 3051 3049 3047 3043 3042 3041 3038 3037 3037 3036 3035 3035 3034 3034 3033 3033 3033 3033 3034 3034 3034 3034 3035 3036 3036 3038 3039
3079 3077 3077 3077 3076 3074 3070 3069 3068 3062 3059 3058 3048 3048 3043 3043 3042 3039 3038 3036 3036 3035 3030 3027 3028 3028 3027 3027 3026 3025 3024 3024 3023 3024 3024 3024 3025 3025 3026 3027 3027 3028 3029 3031
3075 3073 3071 3068 3070 3066 3060 3062 3057 3054 3050 3046 3041 3036 3040 3036 3033 3030 3027 3024 3023 3024 3023 3020 3019 3019 3019 3018 3017 3017 3016 3015 3014 3015 3015 3015 3015 3016 3017 3018 3019 3020 3021 3022
3071 3071 3069 3063 3065 3060 3055 3053 3050 3047 3045 3043 3036 3033 3032 3028 3025 3022 3019 3017 3015 3016 3015 3013 3013 3011 3010 3010 3009 3008 3008 3007 3005 3005 3006 3007 3006 3007 3007 3008 3009 3011 3012 3014
3064 3065 3066 3064 3063 3061 3048 3048 3045 3041 3037 3036 3032 3030 3027 3023 3019 3015 3013 3012 3009 3008 3006 3005 3004 3005 3004 3002 3001 3001 2999 2999 2998 2998 2998 2998 2998 2998 2997 2999 3000 3001 3003 3005
3058 3060 3061 3062 3058 3047 3040 3040 3039 3035 3031 3031 3026 3022 3020 3017 3014 3012 3009 3006 3003 3002 3000 2999 2998 2998 2997 2996 2994 2994 2993 2992 2991 2991 2991 2991 2991 2991 2991 2992 2992 2993 2995 2997
3053 3054 3056 3056 3056 3049 3037 3036 3033 3030 3023 3023 3020 3017 3014 3012 3009 3005 3002 3000 2997 2995 2993 2992 2992 2991 2989 2987 2985 2985 2985 2984 2983 2983 2983 2984 2984 2984 2984 2985 2985 2986 2988 2989
3047 3047 3046 3047 3049 3038 3031 3029 3027 3026 3021 3016 3013 3010 3008 3006 3004 2998 2995 2992 2989 2987 2985 2983 2982 2981 2980 2977 2975 2974 2974 2973 2974 2974 2974 2975 2975 2976 2976 2976 2977 2978 2980 2982
3041 3041 3039 3040 3043 3034 3025 3024 3024 3019 3014 3008 3005 3000 2997 2994 2991 2988 2985 2982 2978 2976 2974 2972 2972 2971 2969 2966 2965 2964 2962 2962 2962 2963 2964 2965 2966 2966 2967 2967 2969 2970 2972 2973
3034 3032 3033 3034 3028 3025 3018 3015 3012 3007 3003 2998 2994 2990 2985 2981 2976 2972 2968 2966 2963 2961 2960 2958 2957 2957 2957 2955 2952 2952 2951 2950 2950 2951 2952 2953 2954 2955 2956 2957 2959 2960 2962 2964
3025 3025 3022 3022 3018 3016 3011 3006 3002 2998 2993 2989 2983 2978 2973 2968 2963 2958 2952 2948 2947 2947 2945 2945 2945 2945 2944 2943 2941 2938 2937 2937 2937 2937 2938 2939 2940 2942 2944 2945 2947 2949 2952 2954
3020 3017 3015 3011 3010 3009 3005 2999 2993 2988 2983 2977 2973 2966 2962 2956 2952 2944 2937 2933 2930 2929 2930 2930 2930 2930 2930 2929 2928 2926 2924 2922 2922 2922 2923 2924 2925 2926 2929 2932 2934 2936 2940 2943
3011 3010 3008 3003 3001 2999 2998 2993 2986 2981 2974 2967 2961 2959 2953 2946 2941 2934 2928 2922 2917 2914 2915 2915 2915 2914 2915 2914 2914 2913 2912 2909 2908 2908 2908 2908 2910 2911 2913 2915 2919 2922 2925 2929
Wind_Speed
6 9 8 3 11 15 18 21 24 23 19 27 34 35 31 26 27 35 34 31 28 25 26 22 20 19 19 19 23 25 25 24 21 22 22 23 25 22 22 21 17 19 19 14
10 10 13 15 17 19 21 22 24 23 14 22 30 36 32 27 28 30 36 30 29 27 26 24 22 21 20 19 18 21 22 23 21 19 18 18 21 21 20 20 21 21 19 17
12 10 14 17 19 18 17 19 20 22 23 25 26 32 6 12 14 25 27 27 28 28 27 24 23 22 21 21 20 19 19 20 20 19 18 18 18 21 22 23 23 23 20 18
8 9 10 10 11 11 16 13 15 18 17 6 11 11 30 25 21 22 25 26 27 25 22 20 21 21 20 20 19 18 18 16 18 20 17 19 20 19 20 20 23 25 22 19
7 10 11 12 11 12 10 18 19 19 19 20 26 13 16 17 23 20 23 22 25 24 22 20 19 18 17 15 15 14 14 14 15 16 18 19 20 20 18 17 16 15 18 18
10 13 11 11 14 15 16 19 19 17 11 6 12 13 10 9 8 11 19 27 23 25 22 19 17 14 13 11 7 7 6 7 10 13 16 18 20 18 15 12 13 18 15 17
9 11 12 13 15 13 12 9 6 3 2 6 10 15 12 16 21 23 29 28 30 27 21 17 15 13 11 7 4 2 2 3 2 2 7 12 14 17 15 13 14 14 20 20
4 4 5 6 7 8 5 5 3 4 3 11 32 10 19 23 26 30 35 36 32 23 20 17 16 15 13 9 6 2 1 4 7 7 7 6 3 15 18 17 18 18 15 15
4 5 5 6 11 9 5 7 8 14 22 14 14 25 25 25 26 22 25 26 25 25 20 19 18 17 16 13 10 7 4 2 1 3 5 7 7 7 5 9 19 20 19 20
8 7 9 9 11 11 13 12 4 6 3 5 11 28 32 29 28 27 23 22 25 22 20 21 20 19 18 17 15 13 12 12 11 10 8 7 4 1 3 4 3 6 12 12
10 10 10 13 11 8 11 13 14 16 13 3 6 14 22 34 27 30 26 20 20 20 20 22 22 22 22 21 21 22 23 24 24 22 20 17 17 16 11 7 3 1 2 5
12 9 13 19 18 19 18 19 17 17 20 25 26 43 40 30 26 27 27 25 19 19 19 21 23 25 25 25 25 25 24 24 24 24 23 22 21 20 21 20 16 14 10 8
7 8 7 8 6 12 16 15 21 23 28 38 19 30 42 36 36 32 27 21 26 22 22 23 26 28 29 28 27 27 28 29 30 29 29 29 28 26 24 22 23 22 20 18
14 16 18 16 22 24 31 26 26 23 26 35 37 46 50 43 36 36 34 29 29 30 32 33 34 34 35 35 33 36 35 35 35 34 32 32 30 29 28 27 26 25 25 25
15 21 23 25 27 30 35 36 37 40 43 37 50 50 52 43 47 44 42 44 43 42 39 39 37 36 38 40 42 40 40 40 34 30 27 27 27 26 26 26 26 26 27 27
16 19 25 31 30 30 31 31 39 37 34 34 37 44 35 37 34 34 33 33 30 31 29 31 33 36 38 39 40 40 35 33 34 33 31 30 28 28 27 27 25 24 24 25
17 19 22 22 22 29 25 21 22 25 25 25 32 37 35 36 37 31 27 21 22 23 25 26 30 34 36 36 36 35 36 33 31 30 26 25 25 23 24 24 25 24 24 24
21 20 18 15 19 4 12 17 29 35 32 27 27 36 32 32 33 27 26 22 24 25 27 26 27 30 32 33 32 29 28 27 26 25 24 23 24 23 22 22 22 22 23 23
20 21 12 7 10 26 37 15 18 20 30 29 32 22 20 20 22 23 25 24 27 23 22 24 27 29 27 26 26 26 27 28 27 24 24 24 24 23 24 23 22 22 21 21
14 18 21 11 5 6 20 22 30 31 30 25 21 25 29 32 28 19 22 22 21 24 25 28 34 40 43 40 38 39 35 31 30 29 26 26 25 25 25 26 25 25 24 23
12 13 22 24 13 19 22 21 28 18 25 29 30 36 37 38 32 26 22 28 30 30 32 38 39 41 46 48 46 46 40 36 34 33 32 30 30 29 27 27 28 27 26 24
11 7 8 7 8 12 17 21 25 34 35 44 45 46 48 46 46 48 48 44 46 46 45 46 45 45 46 49 50 46 39 36 36 37 36 35 34 34 34 33 32 32 30 28
12 14 11 12 13 24 37 42 42 39 42 42 43 43 43 45 47 48 50 48 46 45 43 40 42 44 43 38 40 41 42 42 41 41 40 39 38 37 38 39 37 36 35 33
18 17 24 26 26 22 36 36 34 39 41 44 47 47 48 48 48 49 50 49 47 45 45 42 40 41 41 43 44 46 47 46 46 43 42 43 44 42 41 41 41 40 39 37
22 25 25 29 28 26 26 34 39 44 46 47 46 47 46 45 43 49 47 44 44 45 43 42 43 43 43 43 43 44 45 46 46 46 45 44 43 43 44 45 45 45 43 43
22 19 21 27 27 27 30 35 38 37 37 38 39 35 34 36 40 39 37 36 36 40 45 44 43 43 42 42 41 40 41 43 45 45 44 44 43 41 42 44 48 50 49 49
Wind_Direction
277 282 303 274 263 263 275 280 283 282 275 279 285 291 295 291 276 283 289 288 285 285 291 291 292 294 299 292 274 268 265 269 271 263 262 259 256 253 260 276 271 269 280 284
279 292 262 269 271 275 279 285 287 294 294 285 289 293 298 302 279 273 280 290 285 284 286 286 285 291 294 296 292 279 266 259 264 260 262 260 247 247 249 256 267 266 270 274
268 268 269 278 284 288 287 290 296 290 292 281 297 298 322 309 297 267 288 294 288 281 281 282 284 289 293 294 291 285 278 260 255 258 262 260 252 247 245 248 251 259 263 272
280 280 289 294 294 290 291 280 284 291 303 291 306 291 298 314 292 279 282 293 292 288 280 280 287 291 295 295 291 285 277 269 254 248 247 260 259 256 250 248 249 250 260 263
259 279 295 297 299 286 273 284 294 299 288 295 290 267 285 285 301 292 291 287 295 291 282 282 286 290 292 294 292 290 281 270 258 247 249 249 261 256 254 248 241 252 246 246
274 282 290 286 285 287 283 295 303 303 297 273 300 257 304 294 307 302 299 313 308 302 288 282 283 278 279 284 289 298 303 282 261 246 239 243 239 256 247 238 244 230 229 237
299 304 290 290 287 299 310 301 323 286 215 229 354 322 270 296 301 305 306 306 304 291 283 274 267 265 270 268 268 286 20 40 17 259 233 228 226 233 242 234 236 242 237 248
292 291 276 313 300 260 317 291 236 271 326 300 297 265 283 296 297 294 291 296 293 289 276 263 256 255 257 252 245 233 83 73 77 78 86 91 169 218 219 220 225 229 256 226
212 244 272 288 297 284 272 228 269 263 276 273 266 280 285 288 298 297 295 301 304 291 270 256 250 249 248 248 246 246 250 256 68 69 69 78 82 90 111 209 231 233 244 248
255 279 279 289 285 282 266 264 260 235 292 260 276 294 290 300 295 294 299 295 284 275 263 256 252 249 250 255 259 265 272 276 281 283 287 297 305 8 80 99 143 209 242 285
273 263 278 281 285 265 269 266 262 264 252 234 294 273 290 297 296 297 297 293 282 274 262 259 257 254 254 258 266 275 280 283 285 287 288 285 289 295 290 271 270 264 233 262
263 268 256 271 276 277 274 271 262 256 267 261 272 274 285 292 293 298 297 292 285 281 282 274 267 263 264 268 272 274 274 275 277 278 279 281 285 282 281 286 276 265 261 261
240 237 292 309 253 285 308 301 284 274 267 269 266 273 286 290 289 294 295 277 273 266 275 281 275 272 270 269 268 271 273 276 276 276 276 277 279 279 276 274 274 276 270 268
248 255 258 254 280 290 288 285 281 272 267 267 267 278 288 288 289 289 287 285 282 279 282 278 273 273 272 274 277 280 280 279 280 277 275 275 275 273 270 269 268 267 269 272
258 269 279 284 285 284 286 287 288 280 282 266 278 280 294 305 301 295 285 279 278 282 283 275 273 270 270 271 275 278 282 287 285 283 280 277 273 272 269 266 264 262 262 262
260 271 287 287 297 296 290 290 295 295 295 290 293 288 313 312 301 296 283 280 279 278 265 266 271 274 274 274 276 281 282 282 285 284 282 279 278 276 274 273 270 266 262 258
267 271 277 287 293 293 298 304 297 298 298 299 292 305 310 305 303 301 293 289 282 270 277 277 274 274 276 278 280 283 286 285 281 279 277 273 272 272 273 271 269 266 263 261
270 274 275 279 295 298 301 291 295 294 293 299 304 306 310 305 308 307 296 298 295 286 284 282 275 273 277 282 286 289 288 284 281 277 274 270 263 260 261 266 268 267 263 259
269 267 251 244 235 282 297 309 296 303 296 301 301 300 300 300 301 304 308 308 305 298 295 291 289 289 288 288 291 293 290 287 285 281 274 270 267 264 260 260 261 265 266 263
245 251 244 227 238 241 283 292 291 295 289 289 286 292 298 301 288 295 291 289 273 275 278 285 292 294 298 297 294 294 293 287 281 280 276 270 268 265 263 263 260 260 262 263
249 250 243 248 243 273 279 279 285 286 287 293 294 297 297 300 290 286 280 272 270 271 274 285 286 286 292 293 294 300 293 284 276 274 272 269 265 265 263 263 266 267 267 265
261 253 244 235 218 267 275 281 289 292 289 294 295 296 297 294 288 284 281 275 276 281 278 276 277 281 283 285 288 291 286 282 277 272 269 265 262 260 259 261 262 265 266 266
253 245 257 246 266 284 286 285 288 291 294 294 295 297 300 299 296 293 289 285 283 285 283 280 279 278 280 282 285 283 281 281 279 276 273 268 262 258 257 256 256 258 261 262
262 272 273 282 297 282 294 297 301 303 300 300 299 299 299 298 298 298 296 289 284 280 279 281 280 278 279 281 282 282 281 279 278 276 276 274 269 262 257 256 254 253 253 256
273 284 289 288 293 302 300 303 307 304 303 302 300 300 301 300 301 303 301 296 284 275 276 276 277 278 279 280 280 279 277 276 274 274 274 271 270 266 260 255 252 250 250 252
280 281 282 296 310 309 309 306 310 314 312 310 309 307 305 304 310 312 312 307 299 282 271 272 274 278 280 280 279 277 277 276 274 273 271 268 264 262 262 257 251 249 249 248